Time,TemperatureF,DewpointF,PressureIn,WindDirection,WindDirectionDegrees,WindSpeedMPH,WindSpeedGustMPH,Humidity,HourlyPrecipIn,Conditions,Clouds,dailyrainin,SoftwareType,DateUTC
2013-03-22 00:00:00,44.0,36.0,30.36,NW,310,21.0,23.0,71,-99.99,,,-99.99,,2013-03-22 07:00:00,
2013-03-22 00:21:00,44.0,36.0,30.36,NW,310,21.0,23.0,71,-99.99,,,-99.99,,2013-03-22 07:21:00,
2013-03-22 00:31:00,44.0,36.0,30.36,NW,310,21.0,23.0,71,-99.99,,,-99.99,,2013-03-22 07:31:00,
2013-03-22 00:41:00,44.0,36.0,30.36,NW,310,21.0,23.0,71,-99.99,,,-99.99,,2013-03-22 07:41:00,
2013-03-22 00:51:00,44.0,36.0,30.36,NW,310,21.0,23.0,71,-99.99,,,-99.99,,2013-03-22 07:51:00,
2013-03-22 01:11:00,43.0,36.0,30.36,NNW,330,11.0,13.0,75,-99.99,,,-99.99,,2013-03-22 08:11:00,
2013-03-22 01:21:00,43.0,36.0,30.36,NNW,330,11.0,13.0,75,-99.99,,,-99.99,,2013-03-22 08:21:00,
2013-03-22 01:31:00,43.0,36.0,30.36,NNW,330,11.0,13.0,75,-99.99,,,-99.99,,2013-03-22 08:31:00,
2013-03-22 01:41:00,43.0,36.0,30.36,NNW,330,11.0,13.0,75,-99.99,,,-99.99,,2013-03-22 08:41:00,
2013-03-22 01:51:00,43.0,36.0,30.36,NNW,330,11.0,13.0,75,-99.99,,,-99.99,,2013-03-22 08:51:00,
2013-03-22 02:00:00,41.0,36.0,30.35,NW,320,9.0,16.0,83,-99.99,,,-99.99,,2013-03-22 09:00:00,
2013-03-22 02:32:00,41.0,36.0,30.35,NW,320,9.0,16.0,83,-99.99,,,-99.99,,2013-03-22 09:32:00,
2013-03-22 02:42:00,41.0,36.0,30.35,NW,320,9.0,16.0,83,-99.99,,,-99.99,,2013-03-22 09:42:00,
2013-03-22 02:53:00,41.0,36.0,30.35,NW,320,9.0,16.0,83,-99.99,,,-99.99,,2013-03-22 09:53:00,
2013-03-22 03:00:00,40.0,36.0,30.36,East,80,5.0,6.0,86,-99.99,,,-99.99,,2013-03-22 10:00:00,
2013-03-22 03:11:00,40.0,36.0,30.36,East,80,5.0,6.0,86,-99.99,,,-99.99,,2013-03-22 10:11:00,
2013-03-22 03:22:00,40.0,36.0,30.36,East,80,5.0,6.0,86,-99.99,,,-99.99,,2013-03-22 10:22:00,
2013-03-22 03:32:00,40.0,36.0,30.36,East,80,5.0,6.0,86,-99.99,,,-99.99,,2013-03-22 10:32:00,
2013-03-22 03:52:00,40.0,36.0,30.36,East,80,5.0,6.0,86,-99.99,,,-99.99,,2013-03-22 10:52:00,
2013-03-22 04:21:00,41.0,38.0,30.35,North,360,24.0,28.0,90,-99.99,,,-99.99,,2013-03-22 11:21:00,
2013-03-22 04:32:00,41.0,38.0,30.35,North,360,24.0,28.0,90,-99.99,,,-99.99,,2013-03-22 11:32:00,
2013-03-22 04:41:00,41.0,38.0,30.35,North,360,24.0,28.0,90,-99.99,,,-99.99,,2013-03-22 11:41:00,
2013-03-22 04:51:00,41.0,38.0,30.35,North,360,24.0,28.0,90,-99.99,,,-99.99,,2013-03-22 11:51:00,
2013-03-22 05:00:00,40.0,36.0,30.36,NNE,20,9.0,11.0,86,-99.99,,,-99.99,,2013-03-22 12:00:00,
2013-03-22 05:21:00,40.0,36.0,30.36,NNE,20,9.0,11.0,86,-99.99,,,-99.99,,2013-03-22 12:21:00,
2013-03-22 05:31:00,40.0,36.0,30.36,NNE,20,9.0,11.0,86,-99.99,,,-99.99,,2013-03-22 12:31:00,
2013-03-22 05:41:00,40.0,36.0,30.36,NNE,20,9.0,11.0,86,-99.99,,,-99.99,,2013-03-22 12:41:00,
2013-03-22 05:51:00,40.0,36.0,30.36,NNE,20,9.0,11.0,86,-99.99,,,-99.99,,2013-03-22 12:51:00,
2013-03-22 06:00:00,37.0,36.0,30.36,ENE,70,5.0,6.0,95,-99.99,,,-99.99,,2013-03-22 13:00:00,
2013-03-22 06:21:00,37.0,36.0,30.36,ENE,70,5.0,6.0,95,-99.99,,,-99.99,,2013-03-22 13:21:00,
2013-03-22 06:31:00,37.0,36.0,30.36,ENE,70,5.0,6.0,95,-99.99,,,-99.99,,2013-03-22 13:31:00,
2013-03-22 06:41:00,37.0,36.0,30.36,ENE,70,5.0,6.0,95,-99.99,,,-99.99,,2013-03-22 13:41:00,
2013-03-22 06:52:00,37.0,36.0,30.36,ENE,70,5.0,6.0,95,-99.99,,,-99.99,,2013-03-22 13:52:00,
2013-03-22 07:00:00,36.0,36.0,30.37,East,80,6.0,7.0,100,-99.99,,,-99.99,,2013-03-22 14:00:00,
2013-03-22 07:21:00,36.0,36.0,30.37,East,80,6.0,7.0,100,-99.99,,,-99.99,,2013-03-22 14:21:00,
2013-03-22 07:41:00,36.0,36.0,30.37,East,80,6.0,7.0,100,-99.99,,,-99.99,,2013-03-22 14:41:00,
2013-03-22 07:51:00,36.0,36.0,30.37,East,80,6.0,7.0,100,-99.99,,,-99.99,,2013-03-22 14:51:00,
2013-03-22 08:00:00,36.0,36.0,30.37,ENE,70,5.0,5.0,100,-99.99,,,-99.99,,2013-03-22 15:00:00,
2013-03-22 08:11:00,36.0,36.0,30.37,ENE,70,5.0,5.0,100,-99.99,,,-99.99,,2013-03-22 15:11:00,
2013-03-22 08:21:00,36.0,36.0,30.37,ENE,70,5.0,5.0,100,-99.99,,,-99.99,,2013-03-22 15:21:00,
2013-03-22 08:32:00,36.0,36.0,30.37,ENE,70,5.0,5.0,100,-99.99,,,-99.99,,2013-03-22 15:32:00,
2013-03-22 08:42:00,36.0,36.0,30.37,ENE,70,5.0,5.0,100,-99.99,,,-99.99,,2013-03-22 15:42:00,
2013-03-22 08:52:00,36.0,36.0,30.37,ENE,70,5.0,5.0,100,-99.99,,,-99.99,,2013-03-22 15:52:00,
2013-03-22 09:22:00,37.0,37.0,30.38,ESE,120,6.0,7.0,100,-99.99,,,-99.99,,2013-03-22 16:22:00,
2013-03-22 09:32:00,37.0,37.0,30.38,ESE,120,6.0,7.0,100,-99.99,,,-99.99,,2013-03-22 16:32:00,
2013-03-22 09:41:00,37.0,37.0,30.38,ESE,120,6.0,7.0,100,-99.99,,,-99.99,,2013-03-22 16:41:00,
2013-03-22 09:52:00,37.0,37.0,30.38,ESE,120,6.0,7.0,100,-99.99,,,-99.99,,2013-03-22 16:52:00,
2013-03-22 10:00:00,40.0,38.0,30.39,ESE,110,8.0,10.0,91,-99.99,,,-99.99,,2013-03-22 17:00:00,
2013-03-22 10:22:00,40.0,38.0,30.39,ESE,110,8.0,10.0,91,-99.99,,,-99.99,,2013-03-22 17:22:00,
2013-03-22 10:32:00,40.0,38.0,30.39,ESE,110,8.0,10.0,91,-99.99,,,-99.99,,2013-03-22 17:32:00,
2013-03-22 10:41:00,40.0,38.0,30.39,ESE,110,8.0,10.0,91,-99.99,,,-99.99,,2013-03-22 17:41:00,
2013-03-22 10:51:00,40.0,38.0,30.39,ESE,110,8.0,10.0,91,-99.99,,,-99.99,,2013-03-22 17:51:00,
2013-03-22 11:00:00,43.0,36.0,30.40,NNE,30,1.0,2.0,75,-99.99,,,-99.99,,2013-03-22 18:00:00,
2013-03-22 11:21:00,43.0,36.0,30.40,NNE,30,1.0,2.0,75,-99.99,,,-99.99,,2013-03-22 18:21:00,
2013-03-22 11:32:00,43.0,36.0,30.40,NNE,30,1.0,2.0,75,-99.99,,,-99.99,,2013-03-22 18:32:00,
2013-03-22 11:41:00,43.0,36.0,30.40,NNE,30,1.0,2.0,75,-99.99,,,-99.99,,2013-03-22 18:41:00,
2013-03-22 11:52:00,43.0,36.0,30.40,NNE,30,1.0,2.0,75,-99.99,,,-99.99,,2013-03-22 18:52:00,
2013-03-22 12:00:00,44.0,36.0,30.40,WNW,290,3.0,5.0,74,-99.99,,,-99.99,,2013-03-22 19:00:00,
2013-03-22 12:11:00,44.0,36.0,30.40,WNW,290,3.0,5.0,74,-99.99,,,-99.99,,2013-03-22 19:11:00,
2013-03-22 12:21:00,44.0,36.0,30.40,WNW,290,3.0,5.0,74,-99.99,,,-99.99,,2013-03-22 19:21:00,
2013-03-22 12:32:00,44.0,36.0,30.40,WNW,290,3.0,5.0,74,-99.99,,,-99.99,,2013-03-22 19:32:00,
2013-03-22 12:41:00,44.0,36.0,30.40,WNW,290,3.0,5.0,74,-99.99,,,-99.99,,2013-03-22 19:41:00,
2013-03-22 12:51:00,44.0,36.0,30.40,WNW,290,3.0,5.0,74,-99.99,,,-99.99,,2013-03-22 19:51:00,
2013-03-22 13:00:00,44.0,35.0,30.40,West,270,5.0,8.0,71,-99.99,,,-99.99,,2013-03-22 20:00:00,
2013-03-22 13:22:00,44.0,35.0,30.40,West,270,5.0,8.0,71,-99.99,,,-99.99,,2013-03-22 20:22:00,
2013-03-22 13:31:00,44.0,35.0,30.40,West,270,5.0,8.0,71,-99.99,,,-99.99,,2013-03-22 20:31:00,
2013-03-22 13:41:00,44.0,35.0,30.40,West,270,5.0,8.0,71,-99.99,,,-99.99,,2013-03-22 20:41:00,
2013-03-22 13:51:00,44.0,35.0,30.40,West,270,5.0,8.0,71,-99.99,,,-99.99,,2013-03-22 20:51:00,
2013-03-22 14:00:00,43.0,36.0,30.40,North,350,17.0,21.0,77,-99.99,,,-99.99,,2013-03-22 21:00:00,
2013-03-22 14:21:00,43.0,36.0,30.40,North,350,17.0,21.0,77,-99.99,,,-99.99,,2013-03-22 21:21:00,
2013-03-22 14:32:00,43.0,36.0,30.40,North,350,17.0,21.0,77,-99.99,,,-99.99,,2013-03-22 21:32:00,
2013-03-22 14:42:00,43.0,36.0,30.40,North,350,17.0,21.0,77,-99.99,,,-99.99,,2013-03-22 21:42:00,
2013-03-22 14:52:00,43.0,36.0,30.40,North,350,17.0,21.0,77,-99.99,,,-99.99,,2013-03-22 21:52:00,
2013-03-22 15:00:00,43.0,36.0,30.39,NNW,340,10.0,11.0,76,-99.99,,,-99.99,,2013-03-22 22:00:00,
2013-03-22 15:12:00,43.0,36.0,30.39,NNW,340,10.0,11.0,76,-99.99,,,-99.99,,2013-03-22 22:12:00,
2013-03-22 15:22:00,43.0,36.0,30.39,NNW,340,10.0,11.0,76,-99.99,,,-99.99,,2013-03-22 22:22:00,
2013-03-22 15:31:00,43.0,36.0,30.39,NNW,340,10.0,11.0,76,-99.99,,,-99.99,,2013-03-22 22:31:00,
2013-03-22 15:52:00,43.0,36.0,30.39,NNW,340,10.0,11.0,76,-99.99,,,-99.99,,2013-03-22 22:52:00,
2013-03-22 16:00:00,45.0,37.0,30.39,WNW,300,5.0,6.0,74,-99.99,,,-99.99,,2013-03-22 23:00:00,
2013-03-22 16:31:00,45.0,37.0,30.39,WNW,300,5.0,6.0,74,-99.99,,,-99.99,,2013-03-22 23:31:00,
2013-03-22 16:41:00,45.0,37.0,30.39,WNW,300,5.0,6.0,74,-99.99,,,-99.99,,2013-03-22 23:41:00,
2013-03-22 17:00:00,44.0,34.0,30.40,NW,320,11.0,15.0,68,-99.99,,,-99.99,,2013-03-23 00:00:00,
2013-03-22 17:22:00,44.0,34.0,30.40,NW,320,11.0,15.0,68,-99.99,,,-99.99,,2013-03-23 00:22:00,
2013-03-22 17:31:00,44.0,34.0,30.40,NW,320,11.0,15.0,68,-99.99,,,-99.99,,2013-03-23 00:31:00,
2013-03-22 17:41:00,44.0,34.0,30.40,NW,320,11.0,15.0,68,-99.99,,,-99.99,,2013-03-23 00:41:00,
2013-03-22 17:51:00,44.0,34.0,30.40,NW,320,11.0,15.0,68,-99.99,,,-99.99,,2013-03-23 00:51:00,
2013-03-22 18:00:00,44.0,34.0,30.40,North,350,11.0,14.0,68,-99.99,,,-99.99,,2013-03-23 01:00:00,
2013-03-22 18:11:00,44.0,34.0,30.40,North,350,11.0,14.0,68,-99.99,,,-99.99,,2013-03-23 01:11:00,
2013-03-22 18:21:00,44.0,34.0,30.40,North,350,11.0,14.0,68,-99.99,,,-99.99,,2013-03-23 01:21:00,
2013-03-22 18:31:00,44.0,34.0,30.40,North,350,11.0,14.0,68,-99.99,,,-99.99,,2013-03-23 01:31:00,
2013-03-22 18:41:00,44.0,34.0,30.40,North,350,11.0,14.0,68,-99.99,,,-99.99,,2013-03-23 01:41:00,
2013-03-22 18:52:00,44.0,34.0,30.40,North,350,11.0,14.0,68,-99.99,,,-99.99,,2013-03-23 01:52:00,
2013-03-22 19:00:00,41.0,35.0,30.40,North,350,11.0,13.0,76,-99.99,,,-99.99,,2013-03-23 02:00:00,
2013-03-22 19:11:00,41.0,35.0,30.40,North,350,11.0,13.0,76,-99.99,,,-99.99,,2013-03-23 02:11:00,
2013-03-22 19:21:00,41.0,35.0,30.40,North,350,11.0,13.0,76,-99.99,,,-99.99,,2013-03-23 02:21:00,
2013-03-22 19:31:00,41.0,35.0,30.40,North,350,11.0,13.0,76,-99.99,,,-99.99,,2013-03-23 02:31:00,
2013-03-22 19:41:00,41.0,35.0,30.40,North,350,11.0,13.0,76,-99.99,,,-99.99,,2013-03-23 02:41:00,
2013-03-22 19:51:00,41.0,35.0,30.40,North,350,11.0,13.0,76,-99.99,,,-99.99,,2013-03-23 02:51:00,
2013-03-22 20:00:00,42.0,36.0,30.39,NE,40,6.0,7.0,78,-99.99,,,-99.99,,2013-03-23 03:00:00,
2013-03-22 20:21:00,42.0,36.0,30.39,NE,40,6.0,7.0,78,-99.99,,,-99.99,,2013-03-23 03:21:00,
2013-03-22 20:32:00,42.0,36.0,30.39,NE,40,6.0,7.0,78,-99.99,,,-99.99,,2013-03-23 03:32:00,
2013-03-22 20:42:00,42.0,36.0,30.39,NE,40,6.0,7.0,78,-99.99,,,-99.99,,2013-03-23 03:42:00,
2013-03-22 20:52:00,42.0,36.0,30.39,NE,40,6.0,7.0,78,-99.99,,,-99.99,,2013-03-23 03:52:00,
2013-03-22 21:00:00,41.0,35.0,30.41,NNE,20,14.0,16.0,79,-99.99,,,-99.99,,2013-03-23 04:00:00,
2013-03-22 21:22:00,41.0,35.0,30.41,NNE,20,14.0,16.0,79,-99.99,,,-99.99,,2013-03-23 04:22:00,
2013-03-22 21:32:00,41.0,35.0,30.41,NNE,20,14.0,16.0,79,-99.99,,,-99.99,,2013-03-23 04:32:00,
2013-03-22 21:42:00,41.0,35.0,30.41,NNE,20,14.0,16.0,79,-99.99,,,-99.99,,2013-03-23 04:42:00,
2013-03-22 21:52:00,41.0,35.0,30.41,NNE,20,14.0,16.0,79,-99.99,,,-99.99,,2013-03-23 04:52:00,
2013-03-22 22:11:00,40.0,34.0,30.41,East,100,3.0,5.0,80,-99.99,,,-99.99,,2013-03-23 05:11:00,
2013-03-22 22:21:00,40.0,34.0,30.41,East,100,3.0,5.0,80,-99.99,,,-99.99,,2013-03-23 05:21:00,
2013-03-22 22:32:00,40.0,34.0,30.41,East,100,3.0,5.0,80,-99.99,,,-99.99,,2013-03-23 05:32:00,
2013-03-22 22:41:00,40.0,34.0,30.41,East,100,3.0,5.0,80,-99.99,,,-99.99,,2013-03-23 05:41:00,
2013-03-22 22:51:00,40.0,34.0,30.41,East,100,3.0,5.0,80,-99.99,,,-99.99,,2013-03-23 05:51:00,
2013-03-22 23:00:00,38.0,35.0,30.41,East,80,5.0,6.0,89,-99.99,,,-99.99,,2013-03-23 06:00:00,
2013-03-22 23:11:00,38.0,35.0,30.41,East,80,5.0,6.0,89,-99.99,,,-99.99,,2013-03-23 06:11:00,
2013-03-22 23:21:00,38.0,35.0,30.41,East,80,5.0,6.0,89,-99.99,,,-99.99,,2013-03-23 06:21:00,
2013-03-22 23:31:00,38.0,35.0,30.41,East,80,5.0,6.0,89,-99.99,,,-99.99,,2013-03-23 06:31:00,
2013-03-22 23:41:00,38.0,35.0,30.41,East,80,5.0,6.0,89,-99.99,,,-99.99,,2013-03-23 06:41:00,
2013-03-22 23:51:00,38.0,35.0,30.41,East,80,5.0,6.0,89,-99.99,,,-99.99,,2013-03-23 06:51:00,